カタログに戻る

STARLINK-30326

運用中通信VLEO
NORAD 57639·PAYLOAD·🇺🇸 United States

打ち上げ Aug 17, 2023 から Cape Canaveral Space Force Station

Loading…

次のパス (今後24時間)

TLE

最新Source: CelesTrak SupGP

元期: Sep 15, 2026, 02:54 UTC

1 57639C 23122H   26258.12131944  .00001962  00000+0  71044-4 0  2583
2 57639  43.0028 102.6965 0001583 269.4101 246.0827 15.27589885    16

AllMySatでSTARLINK-30326をリアルタイム追跡

Download on the App Store